,,Stat5,,Stat1,,Stat2,,Stat3,,Stat4,,Wind1,,Wind1,
time,status,PA1M_AVG,status,PR1M_SUM,status,RH1M_AVG,status,SR1M_AVG,status,TA1M_AVG,status,W1dAve1m,status,W1sAve1m,
2003-01-06, 00:00:01,VALID,920.531,VALID,0,VALID,91.8861,VALID,0,VALID,20.1334,VALID,134,VALID,0.926809,
2003-01-06, 00:01:00,VALID,920.522,VALID,0,VALID,91.8429,VALID,0,VALID,20.1369,VALID,130,VALID,1.13682,
2003-01-06, 00:02:00,VALID,920.487,VALID,0,VALID,91.6166,VALID,0.0169808,VALID,20.1464,VALID,112,VALID,1.22633,
2003-01-06, 00:03:00,VALID,920.469,VALID,0,VALID,91.2516,VALID,0,VALID,20.165,VALID,133,VALID,1.58133,
2003-01-06, 00:04:00,VALID,920.462,VALID,0,VALID,90.8294,VALID,0,VALID,20.2269,VALID,137,VALID,1.31934,
2003-01-06, 00:05:00,VALID,920.452,VALID,0,VALID,90.6044,VALID,0,VALID,20.2988,VALID,129,VALID,1.09291,
2003-01-06, 00:06:00,VALID,920.449,VALID,0,VALID,90.612,VALID,-0.0169808,VALID,20.3174,VALID,119,VALID,0.736842,
2003-01-06, 00:07:00,VALID,920.439,VALID,0,VALID,90.7226,VALID,0,VALID,20.3107,VALID,120,VALID,0.989515,
2003-01-06, 00:08:00,VALID,920.422,VALID,0,VALID,90.8244,VALID,0,VALID,20.288,VALID,135,VALID,0.923018,
2003-01-06, 00:09:00,VALID,920.408,VALID,0,VALID,90.8918,VALID,0,VALID,20.3015,VALID,140,VALID,0.893612,
2003-01-06, 00:10:00,VALID,920.388,VALID,0,VALID,90.9057,VALID,0,VALID,20.2985,VALID,124,VALID,0.76647,
2003-01-06, 00:11:00,VALID,920.378,VALID,0,VALID,90.832,VALID,0,VALID,20.2888,VALID,135,VALID,0.860795,
2003-01-06, 00:12:00,VALID,920.367,VALID,0,VALID,90.8091,VALID,0,VALID,20.2783,VALID,130,VALID,0.879434,
2003-01-06, 00:13:00,VALID,920.361,VALID,0,VALID,90.6705,VALID,0.0169808,VALID,20.2883,VALID,140,VALID,0.903783,
2003-01-06, 00:14:00,VALID,920.352,VALID,0,VALID,90.5662,VALID,0.0169808,VALID,20.2942,VALID,130,VALID,0.73088,
2003-01-06, 00:15:00,VALID,920.358,VALID,0,VALID,90.495,VALID,0,VALID,20.3042,VALID,117,VALID,0.79859,
2003-01-06, 00:16:00,VALID,920.337,VALID,0,VALID,90.2242,VALID,0,VALID,20.3335,VALID,101,VALID,0.727022,
2003-01-06, 00:17:00,VALID,920.345,VALID,0,VALID,90.1097,VALID,0,VALID,20.3527,VALID,144,VALID,0.656672,
2003-01-06, 00:18:00,VALID,920.338,VALID,0,VALID,89.9838,VALID,0,VALID,20.3788,VALID,131,VALID,1.35767,
2003-01-06, 00:19:00,VALID,920.337,VALID,0,VALID,89.7384,VALID,0,VALID,20.4079,VALID,139,VALID,0.895481,
2003-01-06, 00:20:00,VALID,920.325,VALID,0,VALID,89.5489,VALID,0.0169808,VALID,20.4302,VALID,129,VALID,1.01933,
2003-01-06, 00:21:00,VALID,920.341,VALID,0,VALID,89.3824,VALID,0,VALID,20.4725,VALID,131,VALID,1.10197,
2003-01-06, 00:22:00,VALID,920.335,VALID,0,VALID,89.1675,VALID,0,VALID,20.5013,VALID,126,VALID,0.964939,
2003-01-06, 00:23:00,VALID,920.334,VALID,0,VALID,89.1166,VALID,0.0169808,VALID,20.5274,VALID,136,VALID,0.825368,
2003-01-06, 00:24:00,VALID,920.338,VALID,0,VALID,89.1115,VALID,0,VALID,20.5272,VALID,132,VALID,0.831081,
2003-01-06, 00:25:00,VALID,920.332,VALID,0,VALID,89.1865,VALID,0,VALID,20.5242,VALID,127,VALID,0.97964,
2003-01-06, 00:26:00,VALID,920.338,VALID,0,VALID,89.2132,VALID,0,VALID,20.5113,VALID,136,VALID,1.34882,
2003-01-06, 00:27:00,VALID,920.317,VALID,0,VALID,89.2336,VALID,0.0169808,VALID,20.508,VALID,138,VALID,1.28824,
2003-01-06, 00:28:00,VALID,920.315,VALID,0,VALID,89.2514,VALID,0,VALID,20.4981,VALID,141,VALID,1.55962,
2003-01-06, 00:29:00,VALID,920.314,VALID,0,VALID,89.2565,VALID,0,VALID,20.5113,VALID,144,VALID,1.52858,
2003-01-06, 00:30:00,VALID,920.3,VALID,0,VALID,89.2844,VALID,0,VALID,20.5078,VALID,135,VALID,1.74449,
2003-01-06, 00:31:00,VALID,920.283,VALID,0,VALID,89.4307,VALID,0,VALID,20.5016,VALID,136,VALID,1.3997,
2003-01-06, 00:32:00,VALID,920.279,VALID,0,VALID,89.479,VALID,0,VALID,20.479,VALID,131,VALID,1.18408,
2003-01-06, 00:33:00,VALID,920.277,VALID,0,VALID,89.5769,VALID,0,VALID,20.4528,VALID,132,VALID,1.06905,
2003-01-06, 00:34:00,VALID,920.276,VALID,0,VALID,89.6494,VALID,0,VALID,20.4466,VALID,125,VALID,1.03783,
2003-01-06, 00:35:00,VALID,920.287,VALID,0,VALID,89.6748,VALID,0,VALID,20.4203,VALID,133,VALID,0.894531,
2003-01-06, 00:36:00,VALID,920.291,VALID,0,VALID,89.6316,VALID,0.0169808,VALID,20.4235,VALID,122,VALID,0.758384,
2003-01-06, 00:37:00,VALID,920.305,VALID,0,VALID,89.4599,VALID,0.0169808,VALID,20.4399,VALID,117,VALID,1.28332,
2003-01-06, 00:38:00,VALID,920.298,VALID,0,VALID,89.39,VALID,0,VALID,20.4496,VALID,129,VALID,1.04075,
2003-01-06, 00:39:00,VALID,920.314,VALID,0,VALID,89.2794,VALID,0,VALID,20.466,VALID,131,VALID,0.911458,
2003-01-06, 00:40:00,VALID,920.324,VALID,0,VALID,89.1039,VALID,0.0339617,VALID,20.4884,VALID,115,VALID,0.944046,
2003-01-06, 00:41:00,VALID,920.328,VALID,0,VALID,89.081,VALID,0.0509425,VALID,20.5078,VALID,131,VALID,0.69449,
2003-01-06, 00:42:00,VALID,920.336,VALID,0,VALID,89.0034,VALID,0.0169808,VALID,20.514,VALID,117,VALID,0.830592,
2003-01-06, 00:43:00,VALID,920.358,VALID,0,VALID,88.9411,VALID,0.0169808,VALID,20.5307,VALID,109,VALID,0.643864,
2003-01-06, 00:44:00,VALID,920.366,VALID,0,VALID,88.8915,VALID,0,VALID,20.5342,VALID,118,VALID,0.915148,
2003-01-06, 00:45:00,VALID,920.361,VALID,0,VALID,88.7898,VALID,0.0169808,VALID,20.5342,VALID,119,VALID,0.99451,
2003-01-06, 00:46:00,VALID,920.374,VALID,0,VALID,88.7898,VALID,0.0169808,VALID,20.5436,VALID,105,VALID,1.0354,
2003-01-06, 00:47:00,VALID,920.369,VALID,0,VALID,88.9144,VALID,0.0169808,VALID,20.5398,VALID,110,VALID,0.935389,
2003-01-06, 00:48:00,VALID,920.377,VALID,0,VALID,88.8941,VALID,0.0509425,VALID,20.5371,VALID,95,VALID,1.18195,
2003-01-06, 00:49:00,VALID,920.357,VALID,0,VALID,88.861,VALID,0.0339617,VALID,20.5272,VALID,100,VALID,1.1581,
2003-01-06, 00:50:00,VALID,920.357,VALID,0,VALID,88.833,VALID,-0.0169808,VALID,20.5366,VALID,118,VALID,1.28697,
2003-01-06, 00:51:00,VALID,920.337,VALID,0,VALID,88.9449,VALID,0.0169808,VALID,20.5466,VALID,125,VALID,1.15901,
2003-01-06, 00:52:00,VALID,920.302,VALID,0,VALID,89.1522,VALID,-0.0169808,VALID,20.5177,VALID,117,VALID,0.988387,
2003-01-06, 00:53:00,VALID,920.277,VALID,0,VALID,89.4676,VALID,-0.101885,VALID,20.4835,VALID,135,VALID,1.21709,
2003-01-06, 00:54:00,VALID,920.244,VALID,0,VALID,89.6888,VALID,-0.0679233,VALID,20.4412,VALID,132,VALID,1.07981,
2003-01-06, 00:55:00,VALID,920.218,VALID,0,VALID,89.8948,VALID,-0.101885,VALID,20.4097,VALID,147,VALID,1.30407,
2003-01-06, 00:56:00,VALID,920.187,VALID,0,VALID,90.2509,VALID,-0.0849042,VALID,20.3443,VALID,122,VALID,1.28248,
2003-01-06, 00:57:00,VALID,920.177,VALID,0,VALID,90.6972,VALID,-0.0849042,VALID,20.2829,VALID,144,VALID,0.84375,
2003-01-06, 00:58:00,VALID,920.171,VALID,0,VALID,91.0621,VALID,-0.0849042,VALID,20.2247,VALID,129,VALID,0.978171,
2003-01-06, 00:59:00,VALID,920.154,VALID,0,VALID,91.2809,VALID,-0.0679233,VALID,20.1797,VALID,130,VALID,1.31609,
2003-01-06, 01:00:00,VALID,920.154,VALID,0,VALID,91.2987,VALID,-0.101885,VALID,20.1439,VALID,116,VALID,1.36426,
2003-01-06, 01:01:00,VALID,920.162,VALID,0,VALID,91.2376,VALID,-0.101885,VALID,20.1345,VALID,108,VALID,1.29772,
2003-01-06, 01:02:00,VALID,920.184,VALID,0,VALID,91.2008,VALID,-0.101885,VALID,20.1441,VALID,102,VALID,1.41386,
2003-01-06, 01:03:00,VALID,919.794,VALID,0,VALID,91.1524,VALID,-0.0849042,VALID,20.1601,VALID,108,VALID,1.02097,
2003-01-06, 01:04:00,VALID,920.225,VALID,0,VALID,91.1334,VALID,-0.0679233,VALID,20.1767,VALID,124,VALID,0.898247,
2003-01-06, 01:05:00,VALID,920.228,VALID,0,VALID,91.0621,VALID,-0.0339617,VALID,20.1762,VALID,112,VALID,1.00735,
2003-01-06, 01:06:00,VALID,920.248,VALID,0,VALID,90.9706,VALID,-0.101885,VALID,20.1862,VALID,111,VALID,0.749155,
2003-01-06, 01:07:00,VALID,920.243,VALID,0,VALID,90.9159,VALID,-0.0679233,VALID,20.2085,VALID,113,VALID,0.783854,
2003-01-06, 01:08:00,VALID,920.251,VALID,0,VALID,90.8841,VALID,0.0679233,VALID,20.2237,VALID,101,VALID,1.11106,
2003-01-06, 01:09:00,VALID,920.238,VALID,0,VALID,90.9324,VALID,0.0509425,VALID,20.207,VALID,114,VALID,0.723684,
2003-01-06, 01:10:00,VALID,920.226,VALID,0,VALID,90.9502,VALID,0.0169808,VALID,20.1943,VALID,127,VALID,0.924548,
2003-01-06, 01:11:00,VALID,920.21,VALID,0,VALID,90.9528,VALID,0.0509425,VALID,20.1973,VALID,111,VALID,0.757241,
2003-01-06, 01:12:00,VALID,920.194,VALID,0,VALID,90.8867,VALID,0.0509425,VALID,20.204,VALID,128,VALID,0.817555,
2003-01-06, 01:13:00,VALID,920.179,VALID,0,VALID,90.8561,VALID,0,VALID,20.2105,VALID,137,VALID,0.53125,
2003-01-06, 01:14:00,VALID,920.17,VALID,0,VALID,90.7722,VALID,0,VALID,20.2197,VALID,128,VALID,0.75,
2003-01-06, 01:15:00,VALID,920.174,VALID,0,VALID,90.7557,VALID,0.0339617,VALID,20.2269,VALID,136,VALID,0.84924,
2003-01-06, 01:16:00,VALID,920.164,VALID,0,VALID,90.7099,VALID,0.0679233,VALID,20.2269,VALID,115,VALID,1.12582,
2003-01-06, 01:17:00,VALID,920.171,VALID,0,VALID,90.6858,VALID,0.0339617,VALID,20.2361,VALID,104,VALID,1.1435,
2003-01-06, 01:18:00,VALID,920.167,VALID,0,VALID,90.729,VALID,0.0509425,VALID,20.2366,VALID,121,VALID,1.0564,
2003-01-06, 01:19:00,VALID,920.154,VALID,0,VALID,90.7671,VALID,0.0339617,VALID,20.2135,VALID,116,VALID,1.1682,
2003-01-06, 01:20:00,VALID,920.125,VALID,0,VALID,90.86,VALID,0.0339617,VALID,20.2107,VALID,112,VALID,1.17166,
2003-01-06, 01:21:00,VALID,920.091,VALID,0,VALID,90.9642,VALID,0.0509425,VALID,20.1906,VALID,124,VALID,0.865057,
2003-01-06, 01:22:00,VALID,920.062,VALID,0,VALID,91.0927,VALID,0.0679233,VALID,20.1712,VALID,120,VALID,0.690034,
2003-01-06, 01:23:00,VALID,920.032,VALID,0,VALID,91.1079,VALID,0.0339617,VALID,20.1715,VALID,114,VALID,0.769737,
2003-01-06, 01:24:00,VALID,920.01,VALID,0,VALID,91.1651,VALID,0.0169808,VALID,20.1456,VALID,109,VALID,0.971012,
2003-01-06, 01:25:00,VALID,919.984,VALID,0,VALID,91.2643,VALID,0.0679233,VALID,20.1292,VALID,86,VALID,0.945503,
2003-01-06, 01:26:00,VALID,919.959,VALID,0,VALID,91.4042,VALID,0.0849042,VALID,20.1068,VALID,87,VALID,0.537914,
2003-01-06, 01:27:00,VALID,919.938,VALID,0,VALID,91.4207,VALID,0.0169808,VALID,20.1041,VALID,112,VALID,1.11402,
2003-01-06, 01:28:00,VALID,919.905,VALID,0,VALID,91.4958,VALID,0.0509425,VALID,20.0845,VALID,112,VALID,1.2395,
2003-01-06, 01:29:00,VALID,919.88,VALID,0,VALID,91.586,VALID,0.0509425,VALID,20.0681,VALID,107,VALID,1.27492,
2003-01-06, 01:30:00,VALID,919.861,VALID,0,VALID,91.7272,VALID,0.0169808,VALID,20.0457,VALID,88,VALID,1.125,
2003-01-06, 01:31:00,VALID,919.816,VALID,0,VALID,91.7768,VALID,0,VALID,20.0293,VALID,93,VALID,1.08984,
2003-01-06, 01:32:00,VALID,919.775,VALID,0,VALID,91.7514,VALID,0.0169808,VALID,20.0099,VALID,86,VALID,1.2923,
2003-01-06, 01:33:00,VALID,919.744,VALID,0,VALID,91.7526,VALID,0.0169808,VALID,20.0106,VALID,96,VALID,1.34467,
2003-01-06, 01:34:00,VALID,919.718,VALID,0,VALID,91.703,VALID,0.0169808,VALID,20.0064,VALID,92,VALID,1.02935,
2003-01-06, 01:35:00,VALID,919.673,VALID,0,VALID,91.6573,VALID,0.0339617,VALID,20.0295,VALID,114,VALID,0.967566,
2003-01-06, 01:36:00,VALID,919.63,VALID,0,VALID,91.5988,VALID,0.0509425,VALID,20.039,VALID,89,VALID,0.910473,
2003-01-06, 01:37:00,VALID,919.593,VALID,0,VALID,91.5301,VALID,0.0169808,VALID,20.0524,VALID,75,VALID,0.931949,
2003-01-06, 01:38:00,VALID,919.571,VALID,0,VALID,91.4881,VALID,0,VALID,20.0459,VALID,93,VALID,0.719161,
2003-01-06, 01:39:00,VALID,919.541,VALID,0,VALID,91.5441,VALID,0,VALID,20.04,VALID,81,VALID,0.850991,
2003-01-06, 01:40:00,VALID,919.504,VALID,0,VALID,91.6496,VALID,0.0169808,VALID,20.0271,VALID,88,VALID,0.949449,
2003-01-06, 01:41:00,VALID,919.486,VALID,0,VALID,91.7386,VALID,0.0169808,VALID,20.0112,VALID,95,VALID,0.835093,
2003-01-06, 01:42:00,VALID,919.461,VALID,0,VALID,91.7679,VALID,-0.0169808,VALID,20.0179,VALID,95,VALID,0.743164,
2003-01-06, 01:43:00,VALID,919.431,VALID,0,VALID,91.7692,VALID,-0.0169808,VALID,20.0017,VALID,98,VALID,0.855363,
2003-01-06, 01:44:00,VALID,919.411,VALID,0,VALID,91.8887,VALID,0,VALID,19.992,VALID,118,VALID,0.792558,
2003-01-06, 01:45:00,VALID,919.376,VALID,0,VALID,91.9116,VALID,-0.0339617,VALID,19.9686,VALID,94,VALID,0.782278,
2003-01-06, 01:46:00,VALID,919.361,VALID,0,VALID,91.8861,VALID,0,VALID,19.9565,VALID,81,VALID,0.870808,
2003-01-06, 01:47:00,VALID,919.348,VALID,0,VALID,92.0235,VALID,0,VALID,19.9363,VALID,95,VALID,0.877987,
2003-01-06, 01:48:00,VALID,919.332,VALID,0,VALID,92.0375,VALID,0,VALID,19.9435,VALID,106,VALID,1.19932,
2003-01-06, 01:49:00,VALID,919.325,VALID,0,VALID,91.9039,VALID,0,VALID,19.9334,VALID,51,VALID,0.945076,
2003-01-06, 01:50:00,VALID,919.316,VALID,0,VALID,91.9383,VALID,0,VALID,19.9177,VALID,81,VALID,0.903083,
2003-01-06, 01:51:00,VALID,919.316,VALID,0,VALID,92.213,VALID,0,VALID,19.8854,VALID,81,VALID,0.855263,
2003-01-06, 01:52:00,VALID,919.308,VALID,0,VALID,92.4329,VALID,0,VALID,19.8493,VALID,96,VALID,0.711965,
2003-01-06, 01:53:00,VALID,919.299,VALID,0,VALID,92.5563,VALID,0,VALID,19.8434,VALID,135,VALID,0.816311,
2003-01-06, 01:54:00,VALID,919.303,VALID,0,VALID,92.3884,VALID,-0.0169808,VALID,19.8496,VALID,105,VALID,1.11696,
2003-01-06, 01:55:00,VALID,919.299,VALID,0,VALID,92.1786,VALID,-0.0169808,VALID,19.8787,VALID,121,VALID,0.794764,
2003-01-06, 01:56:00,VALID,919.308,VALID,0,VALID,92.0743,VALID,-0.0169808,VALID,19.9083,VALID,150,VALID,0.868408,
2003-01-06, 01:57:00,VALID,919.293,VALID,0,VALID,91.8264,VALID,-0.0339617,VALID,19.9537,VALID,147,VALID,0.849662,
2003-01-06, 01:58:00,VALID,919.293,VALID,0,VALID,91.6484,VALID,-0.0169808,VALID,19.9895,VALID,126,VALID,0.713199,
2003-01-06, 01:59:00,VALID,919.282,VALID,0,VALID,91.5581,VALID,0,VALID,19.9925,VALID,137,VALID,0.646998,
2003-01-06, 02:00:00,VALID,919.275,VALID,0,VALID,91.5415,VALID,0,VALID,19.9853,VALID,123,VALID,0.548971,
2003-01-06, 02:01:00,VALID,919.262,VALID,0,VALID,91.6496,VALID,-0.0339617,VALID,19.9731,VALID,117,VALID,0.924862,
2003-01-06, 02:02:00,VALID,919.254,VALID,0,VALID,91.7768,VALID,-0.0169808,VALID,19.9565,VALID,115,VALID,0.980785,
2003-01-06, 02:03:00,VALID,919.251,VALID,0,VALID,91.8785,VALID,-0.0169808,VALID,19.9274,VALID,121,VALID,0.580019,
2003-01-06, 02:04:00,VALID,919.241,VALID,0,VALID,91.9128,VALID,-0.0169808,VALID,19.9309,VALID,122,VALID,0.253167,
2003-01-06, 02:05:00,VALID,919.242,VALID,0,VALID,91.8556,VALID,0,VALID,19.9473,VALID,126,VALID,0.888363,
2003-01-06, 02:06:00,VALID,919.222,VALID,0,VALID,91.6051,VALID,0.0169808,VALID,19.9764,VALID,98,VALID,0.865132,
2003-01-06, 02:07:00,VALID,919.216,VALID,0,VALID,91.3991,VALID,0,VALID,20.0146,VALID,138,VALID,0.777439,
2003-01-06, 02:08:00,VALID,919.2,VALID,0,VALID,91.2936,VALID,-0.0339617,VALID,20.0447,VALID,121,VALID,0.680836,
2003-01-06, 02:09:00,VALID,919.191,VALID,0,VALID,91.1677,VALID,-0.0169808,VALID,20.0636,VALID,126,VALID,1.19362,
2003-01-06, 02:10:00,VALID,919.169,VALID,0,VALID,90.9795,VALID,-0.0169808,VALID,20.0957,VALID,138,VALID,0.683594,
2003-01-06, 02:11:00,VALID,919.155,VALID,0,VALID,90.8879,VALID,0,VALID,20.1215,VALID,131,VALID,1.19468,
2003-01-06, 02:12:00,VALID,919.144,VALID,0,VALID,90.7214,VALID,-0.0169808,VALID,20.128,VALID,124,VALID,0.997327,
2003-01-06, 02:13:00,VALID,919.146,VALID,0,VALID,90.6463,VALID,-0.0339617,VALID,20.1374,VALID,116,VALID,1.30592,
2003-01-06, 02:14:00,VALID,919.157,VALID,0,VALID,90.584,VALID,-0.0169808,VALID,20.1606,VALID,115,VALID,1.11109,
2003-01-06, 02:15:00,VALID,919.154,VALID,0,VALID,90.5103,VALID,-0.0339617,VALID,20.1765,VALID,143,VALID,0.884651,
2003-01-06, 02:16:00,VALID,919.158,VALID,0,VALID,90.4747,VALID,-0.0339617,VALID,20.2026,VALID,145,VALID,0.80701,
2003-01-06, 02:17:00,VALID,919.161,VALID,0,VALID,90.4251,VALID,-0.0509425,VALID,20.2123,VALID,145,VALID,0.857955,
2003-01-06, 02:18:00,VALID,919.162,VALID,0,VALID,90.4823,VALID,-0.0169808,VALID,20.1889,VALID,115,VALID,0.791385,
2003-01-06, 02:19:00,VALID,919.171,VALID,0,VALID,90.5789,VALID,-0.0679233,VALID,20.1832,VALID,127,VALID,0.941612,
2003-01-06, 02:20:00,VALID,919.179,VALID,0,VALID,90.6311,VALID,-0.0679233,VALID,20.177,VALID,146,VALID,0.446957,
2003-01-06, 02:21:00,VALID,919.181,VALID,0,VALID,90.715,VALID,-0.0169808,VALID,20.1573,VALID,128,VALID,0.511814,
2003-01-06, 02:22:00,VALID,919.188,VALID,0,VALID,90.7786,VALID,-0.0169808,VALID,20.1476,VALID,134,VALID,0.386949,
2003-01-06, 02:23:00,VALID,919.215,VALID,0,VALID,90.8409,VALID,-0.0339617,VALID,20.1412,VALID,120,VALID,0.45397,
2003-01-06, 02:24:00,VALID,919.213,VALID,0,VALID,90.865,VALID,-0.0169808,VALID,20.1218,VALID,97,VALID,0.526123,
2003-01-06, 02:25:00,VALID,919.207,VALID,0,VALID,90.8231,VALID,-0.0169808,VALID,20.1116,VALID,123,VALID,0.535473,
2003-01-06, 02:26:00,VALID,919.196,VALID,0,VALID,90.6667,VALID,-0.0339617,VALID,20.1185,VALID,116,VALID,0.176604,
2003-01-06, 02:27:00,VALID,919.18,VALID,0,VALID,90.7404,VALID,-0.0339617,VALID,20.0827,VALID,106,VALID,0.420025,
2003-01-06, 02:28:00,VALID,919.166,VALID,0,VALID,90.8879,VALID,-0.0339617,VALID,20.0827,VALID,55,VALID,0.451219,
2003-01-06, 02:29:00,VALID,919.151,VALID,0,VALID,90.64,VALID,0,VALID,20.044,VALID,30,VALID,0.622013,
2003-01-06, 02:30:00,VALID,919.142,VALID,0,VALID,90.9185,VALID,-0.0509425,VALID,19.9503,VALID,27,VALID,0.727407,
2003-01-06, 02:31:00,VALID,919.12,VALID,0,VALID,91.5517,VALID,-0.0339617,VALID,19.873,VALID,19,VALID,0.597301,
2003-01-06, 02:32:00,VALID,919.131,VALID,0,VALID,92.012,VALID,-0.0169808,VALID,19.8302,VALID,18,VALID,0.639358,
2003-01-06, 02:33:00,VALID,919.137,VALID,0,VALID,92.2244,VALID,-0.0169808,VALID,19.8116,VALID,18,VALID,0.68565,
2003-01-06, 02:34:00,VALID,919.124,VALID,0,VALID,92.363,VALID,0,VALID,19.7922,VALID,36,VALID,0.851563,
2003-01-06, 02:35:00,VALID,919.129,VALID,0,VALID,92.508,VALID,-0.0339617,VALID,19.7984,VALID,44,VALID,0.65968,
2003-01-06, 02:36:00,VALID,919.118,VALID,0,VALID,92.3134,VALID,-0.0339617,VALID,19.8178,VALID,42,VALID,0.493107,
2003-01-06, 02:37:00,VALID,919.091,VALID,0,VALID,92.3439,VALID,-0.0679233,VALID,19.8377,VALID,54,VALID,0.573057,
2003-01-06, 02:38:00,VALID,919.072,VALID,0,VALID,92.3223,VALID,-0.101885,VALID,19.8503,VALID,74,VALID,0.691895,
2003-01-06, 02:39:00,VALID,919.048,VALID,0,VALID,92.26,VALID,-0.0849042,VALID,19.8568,VALID,77,VALID,0.705448,
2003-01-06, 02:40:00,VALID,919.047,VALID,0,VALID,92.1761,VALID,-0.0849042,VALID,19.8794,VALID,74,VALID,0.804482,
2003-01-06, 02:41:00,VALID,919.03,VALID,0,VALID,91.9777,VALID,-0.0509425,VALID,19.9085,VALID,67,VALID,0.688322,
2003-01-06, 02:42:00,VALID,919.03,VALID,0,VALID,91.951,VALID,-0.0509425,VALID,19.9249,VALID,68,VALID,0.639863,
2003-01-06, 02:43:00,VALID,919.031,VALID,0,VALID,92.096,VALID,-0.0679233,VALID,19.915,VALID,63,VALID,0.936351,
2003-01-06, 02:44:00,VALID,919.025,VALID,0,VALID,92.0489,VALID,-0.0679233,VALID,19.9316,VALID,57,VALID,1.00253,
2003-01-06, 02:45:00,VALID,919.019,VALID,0,VALID,91.9586,VALID,-0.0509425,VALID,19.947,VALID,55,VALID,0.771544,
2003-01-06, 02:46:00,VALID,919.022,VALID,0,VALID,91.8277,VALID,-0.0679233,VALID,19.9634,VALID,58,VALID,0.69109,
2003-01-06, 02:47:00,VALID,919.022,VALID,0,VALID,91.909,VALID,-0.0509425,VALID,19.9575,VALID,59,VALID,0.801398,
2003-01-06, 02:48:00,VALID,919.018,VALID,0,VALID,91.9052,VALID,-0.0849042,VALID,19.9503,VALID,62,VALID,0.837171,
2003-01-06, 02:49:01,VALID,919.023,VALID,0,VALID,91.8874,VALID,-0.0849042,VALID,19.9537,VALID,73,VALID,0.886624,
2003-01-06, 02:50:00,VALID,919.017,VALID,0,VALID,91.9408,VALID,-0.101885,VALID,19.9508,VALID,63,VALID,0.936811,
2003-01-06, 02:51:00,VALID,919.024,VALID,0,VALID,91.909,VALID,-0.101885,VALID,19.9505,VALID,60,VALID,0.978885,
2003-01-06, 02:52:00,VALID,919.019,VALID,0,VALID,91.923,VALID,-0.0849042,VALID,19.9542,VALID,62,VALID,0.957764,
2003-01-06, 02:53:00,VALID,919.027,VALID,0,VALID,91.9802,VALID,-0.0679233,VALID,19.9376,VALID,65,VALID,0.903083,
2003-01-06, 02:54:00,VALID,919.034,VALID,0,VALID,91.9459,VALID,-0.0679233,VALID,19.951,VALID,72,VALID,0.797286,
2003-01-06, 02:55:00,VALID,919.043,VALID,0,VALID,91.8556,VALID,-0.0509425,VALID,19.9605,VALID,77,VALID,0.817845,
2003-01-06, 02:56:01,VALID,919.038,VALID,0,VALID,91.8925,VALID,-0.0679233,VALID,19.9535,VALID,81,VALID,0.894245,
2003-01-06, 02:57:00,VALID,919.055,VALID,0,VALID,91.9268,VALID,-0.0849042,VALID,19.9438,VALID,81,VALID,0.996783,
2003-01-06, 02:58:00,VALID,919.066,VALID,0,VALID,91.9281,VALID,-0.0679233,VALID,19.9667,VALID,80,VALID,1.09227,
2003-01-06, 02:59:00,VALID,919.082,VALID,0,VALID,91.9485,VALID,-0.101885,VALID,19.9505,VALID,79,VALID,0.999527,
2003-01-06, 03:00:00,VALID,919.095,VALID,0,VALID,92.0019,VALID,-0.0849042,VALID,19.9376,VALID,79,VALID,0.982686,
2003-01-06, 03:01:00,VALID,919.116,VALID,0,VALID,91.9561,VALID,-0.0509425,VALID,19.9575,VALID,90,VALID,0.907072,
2003-01-06, 03:02:00,VALID,919.122,VALID,0,VALID,91.8378,VALID,-0.0679233,VALID,19.9729,VALID,99,VALID,0.974918,
2003-01-06, 03:03:00,VALID,919.135,VALID,0,VALID,91.6242,VALID,-0.0679233,VALID,20.0052,VALID,102,VALID,0.808117,
2003-01-06, 03:04:00,VALID,919.146,VALID,0,VALID,91.4068,VALID,-0.0509425,VALID,20.0574,VALID,101,VALID,0.846048,
2003-01-06, 03:05:00,VALID,919.15,VALID,0,VALID,91.2313,VALID,-0.0509425,VALID,20.0798,VALID,92,VALID,0.848818,
2003-01-06, 03:06:01,VALID,919.141,VALID,0,VALID,91.1931,VALID,-0.101885,VALID,20.0927,VALID,85,VALID,0.901855,
2003-01-06, 03:07:00,VALID,919.138,VALID,0,VALID,91.1702,VALID,-0.101885,VALID,20.1024,VALID,92,VALID,0.851774,
2003-01-06, 03:08:00,VALID,919.117,VALID,0,VALID,91.1334,VALID,-0.101885,VALID,20.1123,VALID,93,VALID,0.866776,
2003-01-06, 03:09:00,VALID,919.102,VALID,0,VALID,91.2376,VALID,-0.0849042,VALID,20.0795,VALID,110,VALID,0.974712,
2003-01-06, 03:10:01,VALID,919.088,VALID,0,VALID,91.3228,VALID,-0.101885,VALID,20.0728,VALID,118,VALID,1.17969,
2003-01-06, 03:11:00,VALID,919.088,VALID,0,VALID,91.3101,VALID,-0.101885,VALID,20.0828,VALID,118,VALID,1.04894,
2003-01-06, 03:12:00,VALID,919.072,VALID,0,VALID,91.2592,VALID,-0.118866,VALID,20.0731,VALID,116,VALID,0.933066,
2003-01-06, 03:13:00,VALID,919.064,VALID,0,VALID,91.2402,VALID,-0.0849042,VALID,20.0967,VALID,127,VALID,0.938447,
2003-01-06, 03:14:00,VALID,919.08,VALID,0,VALID,91.2834,VALID,-0.0849042,VALID,20.076,VALID,107,VALID,0.897804,
2003-01-06, 03:15:01,VALID,919.075,VALID,0,VALID,91.3343,VALID,-0.101885,VALID,20.0765,VALID,105,VALID,0.848273,
2003-01-06, 03:16:00,VALID,919.08,VALID,0,VALID,91.3839,VALID,-0.0339617,VALID,20.0671,VALID,105,VALID,0.90111,
2003-01-06, 03:17:01,VALID,919.086,VALID,0,VALID,91.4182,VALID,-0.0849042,VALID,20.0604,VALID,122,VALID,0.744855,
2003-01-06, 03:18:00,VALID,919.095,VALID,0,VALID,91.4576,VALID,-0.0679233,VALID,20.0507,VALID,122,VALID,0.637178,
2003-01-06, 03:19:00,VALID,919.083,VALID,0,VALID,91.5428,VALID,-0.0849042,VALID,20.0383,VALID,122,VALID,0.474451,
2003-01-06, 03:20:01,VALID,919.084,VALID,0,VALID,91.6801,VALID,-0.0849042,VALID,19.9918,VALID,116,VALID,0.562012,
2003-01-06, 03:21:01,VALID,919.061,VALID,0,VALID,91.7653,VALID,-0.0509425,VALID,19.9898,VALID,101,VALID,0.654772,
2003-01-06, 03:22:01,VALID,919.048,VALID,0,VALID,91.8327,VALID,-0.101885,VALID,19.9667,VALID,105,VALID,0.674137,
2003-01-06, 03:23:00,VALID,919.045,VALID,0,VALID,91.9828,VALID,-0.0849042,VALID,19.9446,VALID,123,VALID,0.664474,
2003-01-06, 03:24:01,VALID,919.037,VALID,0,VALID,92.115,VALID,-0.0679233,VALID,19.8889,VALID,95,VALID,0.685594,
2003-01-06, 03:25:00,VALID,919.042,VALID,0,VALID,92.5219,VALID,-0.0849042,VALID,19.8409,VALID,101,VALID,0.844899,
2003-01-06, 03:26:00,VALID,919.038,VALID,0,VALID,92.7076,VALID,-0.101885,VALID,19.8049,VALID,100,VALID,0.610008,
2003-01-06, 03:27:00,VALID,919.049,VALID,0,VALID,92.9009,VALID,-0.101885,VALID,19.8088,VALID,123,VALID,0.855824,
2003-01-06, 03:28:00,VALID,919.048,VALID,0,VALID,92.9289,VALID,-0.0679233,VALID,19.8054,VALID,121,VALID,0.930954,
2003-01-06, 03:29:01,VALID,919.041,VALID,0,VALID,92.9594,VALID,-0.101885,VALID,19.7922,VALID,129,VALID,1.04564,
2003-01-06, 03:30:00,VALID,919.042,VALID,0,VALID,92.8742,VALID,-0.0679233,VALID,19.7957,VALID,148,VALID,0.777344,
2003-01-06, 03:31:01,VALID,919.033,VALID,0,VALID,92.8818,VALID,-0.0849042,VALID,19.7733,VALID,140,VALID,0.891197,
2003-01-06, 03:32:01,VALID,919.018,VALID,0,VALID,93.0547,VALID,-0.101885,VALID,19.7467,VALID,149,VALID,1.01057,